Home > Weather > Decatur > Past weeks

Flag for USA Weather for the Past 2 Weeks in Decatur, Illinois, USA

Now
50 °F

Overcast.


Feels Like: 49 °F
Forecast: 43 / 65 °F
Wind: 3 mph from Northwest

Location: Decatur Airport

Current Time: May 3, 2016 at 4:12:40 AM

Latest Report: May 3, 2016 at 2:54 AM


Visibility: 10 mi

Pressure: 29.99 "Hg

Humidity: 83%

Dew Point: 45 °F

Location of DecaturLocation

Historic Weather in Decatur — Graph

°F

Decatur Temperature Yesterday

Maximum temperature yesterday: 56 °F (at 2:56 PM)
Minimum temperature yesterday: 50 °F (at 4:02 AM)
Average temperature yesterday: 53 °F

High & Low Weather Summary for the Past Weeks

 TemperatureHumidityPressure
High82 °F (Apr 18, 2:54 PM)97% (Apr 21, 10:00 PM)30.32 "Hg (Apr 21, 10:00 PM)
Low39 °F (Apr 23, 5:54 AM)24% (Apr 18, 3:54 PM)29.64 "Hg (Apr 26, 5:54 PM)
Average61 °F73%29.94 "Hg
* Reported Apr 18 2:54 AM — May 3 2:54 AM, Decatur, Weather by CustomWeather, © 2016

Note: Actual official high and low records may vary slightly from our data, if they occured in-between our weather recording intervals... More about our weather records

Advertising

Decatur Weather History for the Previous 24 Hours

Scroll right to see more
 ConditionsComfort  
Time TempWeatherWind HumidityBarometerVisibility
2:54 AM
Tue, May 3
50 °FOvercast.3 mph83%29.99 "Hg10 mi
1:54 AM49 °FOvercast.3 mph84%30.00 "Hg10 mi
12:54 AM50 °FOvercast.5 mph80%30.01 "Hg10 mi
11:54 PM
Mon, May 2
51 °FOvercast.5 mph74%30.02 "Hg10 mi
10:54 PM53 °FOvercast.8 mph80%30.02 "Hg10 mi
9:54 PM54 °FOvercast.12 mph74%30.01 "Hg10 mi
8:54 PM54 °FMostly cloudy.7 mph74%30.00 "Hg10 mi
7:54 PM55 °FMostly cloudy.8 mph72%30.00 "Hg10 mi
6:54 PM55 °FMostly cloudy.7 mph74%30.00 "Hg10 mi
5:54 PM55 °FOvercast.7 mph72%30.01 "Hg10 mi
4:54 PM55 °FMostly cloudy.9 mph72%30.01 "Hg10 mi
3:54 PM56 °FMostly cloudy.8 mph72%30.01 "Hg10 mi
2:56 PM56 °FCloudy.10 mph72%30.02 "Hg10 mi
1:54 PM55 °FMostly cloudy.9 mph72%30.04 "Hg10 mi
12:54 PM54 °FOvercast.9 mph77%30.04 "Hg10 mi
11:54 AM51 °FMostly cloudy.10 mph80%30.06 "Hg10 mi
10:54 AM53 °FCloudy.9 mph77%30.04 "Hg10 mi
9:54 AM50 °FFog.9 mph86%30.04 "Hg6 mi
8:54 AM50 °FFog.12 mph89%30.04 "Hg5 mi
7:54 AM50 °FMore clouds than sun.10 mph89%30.00 "Hg7 mi
6:54 AM50 °FOvercast.8 mph83%30.01 "Hg10 mi
5:54 AM50 °FOvercast.10 mph83%30.03 "Hg10 mi
4:54 AM50 °FOvercast.6 mph80%30.03 "Hg10 mi
4:02 AM50 °FMostly cloudy.13 mph86%30.01 "Hg10 mi
Weather by CustomWeather, © 2016

See weather overviewHow to use our weather pages